^^
Your Local Weather - Clay, NY Station Historical Data
Daily Summary for February 1, 2018 Units:  English    Metric   Both
« Previous Day
Next Day »
Daily Weekly Monthly Yearly Custom
  High: Low: Average:
Temperature: 46.6 °F 23.1 °F 36.4 °F
Dew Point: 33.7 °F 16.4 °F 24.6 °F
Humidity: 82% 52% 63%
Wind Speed: 8.0mph 0.0mph 4.2mph
Wind Gust: 15.0mph - -
Wind- - SW
Pressure: 29.94 in 29.68 in -
Precipitation: 0.08 in    
Historical Graphs
 
 
Tabular Data for February 1, 2018
Time Temperature Dew Point Pressure Wind Wind Speed Wind Gust Humidity Rainfall Rate (Hourly) solar
00:02 32.9 °F 17.2 °F 29.79 in South 4.0 mph 4.0 mph 52% 0.00 in 0 W/m2
00:08 32.8 °F 17.5 °F 29.78 in South 3.0 mph 4.0 mph 53% 0.00 in 0 W/m2
00:14 32.5 °F 17.7 °F 29.78 in South 2.0 mph 3.0 mph 54% 0.00 in 0 W/m2
00:20 32.2 °F 17.4 °F 29.78 in South 2.0 mph 2.0 mph 54% 0.00 in 0 W/m2
00:26 32.1 °F 17.7 °F 29.79 in South 2.0 mph 3.0 mph 55% 0.00 in 0 W/m2
00:32 31.9 °F 18.0 °F 29.79 in South 2.0 mph 2.0 mph 56% 0.00 in 0 W/m2
00:38 31.9 °F 18.4 °F 29.79 in South 1.0 mph 2.0 mph 57% 0.00 in 0 W/m2
00:44 31.8 °F 18.3 °F 29.79 in SE 1.0 mph 1.0 mph 57% 0.00 in 0 W/m2
00:50 32.1 °F 18.2 °F 29.79 in SSE 2.0 mph 2.0 mph 56% 0.00 in 0 W/m2
00:56 32.3 °F 18.3 °F 29.79 in South 2.0 mph 2.0 mph 56% 0.00 in 0 W/m2
01:02 32.9 °F 18.1 °F 29.79 in South 3.0 mph 4.0 mph 54% 0.00 in 0 W/m2
01:08 33.1 °F 18.7 °F 29.79 in SSE 3.0 mph 4.0 mph 55% 0.00 in 0 W/m2
01:14 33.1 °F 18.2 °F 29.79 in SSW 2.0 mph 4.0 mph 54% 0.00 in 0 W/m2
01:20 33.1 °F 18.7 °F 29.79 in South 3.0 mph 3.0 mph 55% 0.00 in 0 W/m2
01:26 33.0 °F 18.1 °F 29.78 in SSE 2.0 mph 3.0 mph 54% 0.00 in 0 W/m2
01:32 32.9 °F 18.1 °F 29.78 in SW 3.0 mph 4.0 mph 54% 0.00 in 0 W/m2
01:38 33.2 °F 17.9 °F 29.78 in SSW 3.0 mph 4.0 mph 53% 0.00 in 0 W/m2
01:44 33.2 °F 17.9 °F 29.78 in SSW 3.0 mph 5.0 mph 53% 0.00 in 0 W/m2
01:50 33.2 °F 18.3 °F 29.78 in South 3.0 mph 3.0 mph 54% 0.00 in 0 W/m2
01:56 33.1 °F 18.2 °F 29.78 in SSE 2.0 mph 4.0 mph 54% 0.00 in 0 W/m2
02:02 32.6 °F 18.2 °F 29.78 in SE 2.0 mph 5.0 mph 55% 0.00 in 0 W/m2
02:08 32.3 °F 17.9 °F 29.78 in SSE 2.0 mph 5.0 mph 55% 0.00 in 0 W/m2
02:14 32.3 °F 17.9 °F 29.78 in SSE 3.0 mph 4.0 mph 55% 0.00 in 0 W/m2
02:20 32.3 °F 17.9 °F 29.78 in SSE 3.0 mph 4.0 mph 55% 0.00 in 0 W/m2
02:28 32.3 °F 17.9 °F 29.79 in SSE 4.0 mph 6.0 mph 55% 0.00 in 0 W/m2
02:34 32.5 °F 17.7 °F 29.78 in SSE 4.0 mph 5.0 mph 54% 0.00 in 0 W/m2
02:40 32.6 °F 17.8 °F 29.79 in South 4.0 mph 4.0 mph 54% 0.00 in 0 W/m2
02:46 32.6 °F 18.2 °F 29.78 in South 3.0 mph 5.0 mph 55% 0.00 in 0 W/m2
02:52 32.7 °F 18.3 °F 29.78 in SSE 3.0 mph 4.0 mph 55% 0.00 in 0 W/m2
02:58 32.6 °F 18.2 °F 29.78 in South 3.0 mph 4.0 mph 55% 0.00 in 0 W/m2
03:04 32.6 °F 18.2 °F 29.78 in South 3.0 mph 5.0 mph 55% 0.00 in 0 W/m2
03:10 32.3 °F 18.3 °F 29.78 in South 3.0 mph 3.0 mph 56% 0.00 in 0 W/m2
03:16 32.3 °F 18.3 °F 29.78 in SSE 3.0 mph 4.0 mph 56% 0.00 in 0 W/m2
03:22 32.3 °F 18.3 °F 29.78 in SSE 3.0 mph 3.0 mph 56% 0.00 in 0 W/m2
03:28 32.3 °F 18.3 °F 29.78 in SSW 3.0 mph 5.0 mph 56% 0.00 in 0 W/m2
03:34 32.3 °F 18.3 °F 29.78 in SE 3.0 mph 4.0 mph 56% 0.00 in 0 W/m2
03:40 32.4 °F 18.0 °F 29.78 in SSE 4.0 mph 5.0 mph 55% 0.00 in 0 W/m2
03:46 32.4 °F 18.0 °F 29.78 in South 4.0 mph 5.0 mph 55% 0.00 in 0 W/m2
03:52 32.3 °F 18.3 °F 29.78 in East 4.0 mph 4.0 mph 56% 0.00 in 0 W/m2
03:58 32.4 °F 18.0 °F 29.78 in SSE 4.0 mph 6.0 mph 55% 0.00 in 0 W/m2
04:04 32.4 °F 18.0 °F 29.78 in South 5.0 mph 8.0 mph 55% 0.00 in 0 W/m2
04:10 32.4 °F 18.0 °F 29.77 in SSE 5.0 mph 5.0 mph 55% 0.00 in 0 W/m2
04:16 32.5 °F 18.1 °F 29.77 in SSE 4.0 mph 5.0 mph 55% 0.00 in 0 W/m2
04:22 32.5 °F 18.1 °F 29.77 in SSW 5.0 mph 5.0 mph 55% 0.00 in 0 W/m2
04:28 32.7 °F 18.3 °F 29.77 in South 5.0 mph 7.0 mph 55% 0.00 in 0 W/m2
04:34 32.6 °F 18.6 °F 29.77 in South 4.0 mph 7.0 mph 56% 0.00 in 0 W/m2
04:40 32.8 °F 18.4 °F 29.78 in South 5.0 mph 5.0 mph 55% 0.00 in 0 W/m2
04:46 32.8 °F 18.8 °F 29.78 in SSW 5.0 mph 6.0 mph 56% 0.00 in 0 W/m2
04:52 32.8 °F 18.4 °F 29.78 in South 5.0 mph 7.0 mph 55% 0.00 in 0 W/m2
04:58 32.8 °F 18.4 °F 29.78 in SSE 5.0 mph 7.0 mph 55% 0.00 in 0 W/m2
05:04 32.8 °F 18.8 °F 29.78 in South 5.0 mph 5.0 mph 56% 0.00 in 0 W/m2
05:10 32.8 °F 18.8 °F 29.78 in SE 4.0 mph 6.0 mph 56% 0.00 in 0 W/m2
05:16 32.8 °F 18.8 °F 29.77 in South 4.0 mph 6.0 mph 56% 0.00 in 0 W/m2
05:24 33.0 °F 19.0 °F 29.77 in SSW 3.0 mph 4.0 mph 56% 0.00 in 0 W/m2
05:30 33.0 °F 19.0 °F 29.77 in SSE 3.0 mph 5.0 mph 56% 0.00 in 0 W/m2
05:36 33.1 °F 19.1 °F 29.77 in South 3.0 mph 5.0 mph 56% 0.00 in 0 W/m2
05:42 33.2 °F 19.2 °F 29.77 in South 2.0 mph 4.0 mph 56% 0.00 in 0 W/m2
05:48 33.4 °F 19.4 °F 29.77 in SSE 3.0 mph 4.0 mph 56% 0.00 in 0 W/m2
05:54 33.4 °F 19.4 °F 29.77 in SSW 3.0 mph 5.0 mph 56% 0.00 in 0 W/m2
06:00 33.5 °F 19.5 °F 29.77 in South 3.0 mph 3.0 mph 56% 0.00 in 0 W/m2
06:06 33.6 °F 20.0 °F 29.78 in SSW 3.0 mph 5.0 mph 57% 0.00 in 0 W/m2
06:12 33.7 °F 20.1 °F 29.78 in SSW 3.0 mph 4.0 mph 57% 0.00 in 0 W/m2
06:18 33.9 °F 20.3 °F 29.77 in SSE 3.0 mph 6.0 mph 57% 0.00 in 0 W/m2
06:24 34.0 °F 20.8 °F 29.78 in SSW 3.0 mph 4.0 mph 58% 0.00 in 0 W/m2
06:30 34.2 °F 20.9 °F 29.77 in SW 4.0 mph 4.0 mph 58% 0.00 in 0 W/m2
06:36 34.3 °F 21.0 °F 29.77 in SSW 4.0 mph 4.0 mph 58% 0.00 in 0 W/m2
06:42 34.4 °F 20.7 °F 29.76 in SSE 4.0 mph 9.0 mph 57% 0.00 in 0 W/m2
06:48 34.4 °F 21.1 °F 29.77 in SSW 4.0 mph 9.0 mph 58% 0.00 in 0 W/m2
06:54 34.4 °F 21.1 °F 29.77 in SSW 4.0 mph 5.0 mph 58% 0.00 in 0 W/m2
07:00 34.5 °F 21.2 °F 29.78 in South 4.0 mph 5.0 mph 58% 0.00 in 0 W/m2
07:06 34.5 °F 21.2 °F 29.78 in SSW 4.0 mph 5.0 mph 58% 0.00 in 0 W/m2
07:12 34.6 °F 21.3 °F 29.78 in South 4.0 mph 6.0 mph 58% 0.00 in 0 W/m2
07:18 34.5 °F 21.6 °F 29.77 in SSE 3.0 mph 9.0 mph 59% 0.00 in 0 W/m2
07:24 34.4 °F 21.5 °F 29.77 in South 3.0 mph 5.0 mph 59% 0.00 in 0 W/m2
07:30 34.3 °F 21.8 °F 29.76 in South 3.0 mph 4.0 mph 60% 0.00 in 0 W/m2
07:36 34.3 °F 21.8 °F 29.76 in South 3.0 mph 6.0 mph 60% 0.00 in 0 W/m2
07:42 34.2 °F 22.1 °F 29.77 in SSW 3.0 mph 3.0 mph 61% 0.00 in 7 W/m2
07:48 34.2 °F 22.1 °F 29.76 in South 2.0 mph 7.0 mph 61% 0.00 in 14 W/m2
07:54 34.3 °F 22.2 °F 29.76 in SSE 3.0 mph 3.0 mph 61% 0.00 in 21 W/m2
08:00 34.4 °F 22.3 °F 29.76 in SSW 3.0 mph 3.0 mph 61% 0.00 in 23 W/m2
08:06 34.4 °F 22.3 °F 29.77 in SSE 3.0 mph 3.0 mph 61% 0.00 in 26 W/m2
08:12 34.3 °F 22.6 °F 29.76 in SSE 2.0 mph 2.0 mph 62% 0.00 in 25 W/m2
08:18 34.4 °F 22.7 °F 29.76 in South 2.0 mph 3.0 mph 62% 0.00 in 37 W/m2
08:24 34.6 °F 22.9 °F 29.76 in South 2.0 mph 3.0 mph 62% 0.00 in 42 W/m2
08:30 34.9 °F 22.8 °F 29.76 in South 3.0 mph 4.0 mph 61% 0.00 in 56 W/m2
08:36 35.2 °F 23.5 °F 29.76 in South 3.0 mph 5.0 mph 62% 0.00 in 69 W/m2
08:42 35.4 °F 23.3 °F 29.76 in South 4.0 mph 4.0 mph 61% 0.00 in 84 W/m2
08:48 35.5 °F 23.8 °F 29.76 in SSE 3.0 mph 4.0 mph 62% 0.00 in 102 W/m2
08:54 35.6 °F 23.9 °F 29.76 in SSE 3.0 mph 5.0 mph 62% 0.00 in 88 W/m2
09:00 35.8 °F 24.0 °F 29.76 in South 3.0 mph 4.0 mph 62% 0.00 in 86 W/m2
09:06 35.9 °F 24.1 °F 29.76 in South 3.0 mph 4.0 mph 62% 0.00 in 97 W/m2
09:12 36.1 °F 24.3 °F 29.76 in South 2.0 mph 2.0 mph 62% 0.00 in 105 W/m2
09:18 36.4 °F 24.6 °F 29.76 in South 3.0 mph 3.0 mph 62% 0.00 in 127 W/m2
09:24 36.6 °F 24.8 °F 29.76 in South 3.0 mph 6.0 mph 62% 0.00 in 111 W/m2
09:30 36.8 °F 25.4 °F 29.77 in South 3.0 mph 3.0 mph 63% 0.00 in 109 W/m2
09:36 37.1 °F 25.3 °F 29.78 in SW 4.0 mph 6.0 mph 62% 0.00 in 134 W/m2
09:42 37.3 °F 25.8 °F 29.77 in SSW 4.0 mph 6.0 mph 63% 0.00 in 179 W/m2
09:48 37.6 °F 26.1 °F 29.77 in SSE 4.0 mph 6.0 mph 63% 0.00 in 172 W/m2
09:54 37.9 °F 26.4 °F 29.76 in SSW 4.0 mph 5.0 mph 63% 0.00 in 162 W/m2
10:00 38.0 °F 26.5 °F 29.76 in SSW 4.0 mph 5.0 mph 63% 0.00 in 146 W/m2
10:06 38.2 °F 26.7 °F 29.76 in SE 3.0 mph 5.0 mph 63% 0.00 in 149 W/m2
10:12 38.4 °F 27.3 °F 29.76 in South 3.0 mph 7.0 mph 64% 0.05 in 172 W/m2
10:18 38.6 °F 27.5 °F 29.76 in SE 4.0 mph 7.0 mph 64% 0.05 in 174 W/m2
10:24 38.8 °F 28.0 °F 29.76 in SSW 4.0 mph 6.0 mph 65% 0.00 in 192 W/m2
10:30 39.1 °F 28.3 °F 29.76 in SSW 4.0 mph 9.0 mph 65% 0.00 in 172 W/m2
10:36 39.3 °F 28.5 °F 29.76 in South 5.0 mph 9.0 mph 65% 0.00 in 193 W/m2
10:42 39.4 °F 28.6 °F 29.76 in South 5.0 mph 5.0 mph 65% 0.04 in 153 W/m2
10:48 39.7 °F 29.3 °F 29.76 in South 4.0 mph 5.0 mph 66% 0.04 in 346 W/m2
10:54 40.9 °F 29.7 °F 29.75 in South 3.0 mph 6.0 mph 64% 0.04 in 346 W/m2
11:00 40.8 °F 29.6 °F 29.75 in SSE 5.0 mph 6.0 mph 64% 0.00 in 199 W/m2
11:06 41.0 °F 30.1 °F 29.75 in SW 5.0 mph 10.0 mph 65% 0.00 in 608 W/m2
11:12 41.7 °F 30.4 °F 29.75 in South 5.0 mph 6.0 mph 64% 0.06 in 513 W/m2
11:18 42.1 °F 30.4 °F 29.75 in SE 5.0 mph 6.0 mph 63% 0.06 in 517 W/m2
11:24 42.3 °F 30.6 °F 29.74 in WSW 5.0 mph 7.0 mph 63% 0.04 in 512 W/m2
11:30 42.5 °F 30.8 °F 29.73 in South 5.0 mph 6.0 mph 63% 0.00 in 517 W/m2
11:36 42.9 °F 30.8 °F 29.73 in SSE 4.0 mph 7.0 mph 62% 0.00 in 512 W/m2
11:42 43.4 °F 30.8 °F 29.73 in SSW 4.0 mph 5.0 mph 61% 0.00 in 519 W/m2
11:48 43.1 °F 31.4 °F 29.73 in SSW 4.0 mph 5.0 mph 63% 0.00 in 524 W/m2
11:54 43.6 °F 31.4 °F 29.73 in South 4.0 mph 7.0 mph 62% 0.00 in 531 W/m2
12:00 43.4 °F 31.2 °F 29.73 in SE 6.0 mph 7.0 mph 62% 0.00 in 547 W/m2
12:06 43.9 °F 31.7 °F 29.73 in SW 6.0 mph 8.0 mph 62% 0.00 in 529 W/m2
12:12 44.0 °F 31.8 °F 29.73 in SW 6.0 mph 7.0 mph 62% 0.00 in 615 W/m2
12:18 44.7 °F 32.1 °F 29.73 in SW 5.0 mph 7.0 mph 61% 0.00 in 406 W/m2
12:24 44.4 °F 31.8 °F 29.73 in SSW 4.0 mph 7.0 mph 61% 0.00 in 234 W/m2
12:30 44.1 °F 31.9 °F 29.71 in SW 5.0 mph 5.0 mph 62% 0.00 in 260 W/m2
12:36 44.0 °F 31.8 °F 29.71 in SW 5.0 mph 6.0 mph 62% 0.00 in 325 W/m2
12:42 44.1 °F 31.9 °F 29.70 in SSW 5.0 mph 6.0 mph 62% 0.00 in 306 W/m2
12:48 44.3 °F 32.1 °F 29.71 in SW 6.0 mph 10.0 mph 62% 0.00 in 285 W/m2
12:54 44.5 °F 31.9 °F 29.70 in SSW 6.0 mph 9.0 mph 61% 0.00 in 434 W/m2
13:00 45.1 °F 32.0 °F 29.70 in South 6.0 mph 6.0 mph 60% 0.00 in 638 W/m2
13:06 45.7 °F 32.2 °F 29.70 in SW 5.0 mph 6.0 mph 59% 0.00 in 485 W/m2
13:12 45.2 °F 32.1 °F 29.70 in SW 6.0 mph 10.0 mph 60% 0.00 in 394 W/m2
13:18 45.3 °F 32.2 °F 29.69 in SW 6.0 mph 10.0 mph 60% 0.00 in 429 W/m2
13:24 45.5 °F 32.0 °F 29.68 in SW 6.0 mph 8.0 mph 59% 0.00 in 316 W/m2
13:30 45.2 °F 31.7 °F 29.68 in SSW 7.0 mph 7.0 mph 59% 0.00 in 209 W/m2
13:36 45.4 °F 32.3 °F 29.68 in SW 6.0 mph 7.0 mph 60% 0.00 in 577 W/m2
13:42 45.8 °F 31.9 °F 29.68 in SSW 6.0 mph 11.0 mph 58% 0.00 in 248 W/m2
13:48 45.8 °F 31.9 °F 29.68 in South 7.0 mph 12.0 mph 58% 0.00 in 362 W/m2
13:54 45.7 °F 31.8 °F 29.68 in SW 8.0 mph 8.0 mph 58% 0.00 in 223 W/m2
14:00 45.7 °F 32.2 °F 29.68 in SW 6.0 mph 11.0 mph 59% 0.00 in 353 W/m2
14:06 45.9 °F 31.9 °F 29.68 in SSE 5.0 mph 11.0 mph 58% 0.00 in 309 W/m2
14:12 46.5 °F 32.5 °F 29.68 in SW 4.0 mph 5.0 mph 58% 0.00 in 452 W/m2
14:18 46.6 °F 31.7 °F 29.68 in SSW 6.0 mph 6.0 mph 56% 0.00 in 490 W/m2
14:24 46.6 °F 31.7 °F 29.68 in SSW 7.0 mph 9.0 mph 56% 0.00 in 315 W/m2
14:30 46.6 °F 31.7 °F 29.68 in SW 7.0 mph 11.0 mph 56% 0.00 in 381 W/m2
14:36 46.3 °F 32.3 °F 29.68 in West 6.0 mph 11.0 mph 58% 0.00 in 381 W/m2
14:42 46.4 °F 32.0 °F 29.68 in SSW 6.0 mph 7.0 mph 57% 0.00 in 206 W/m2
14:48 46.3 °F 32.3 °F 29.68 in SSW 4.0 mph 8.0 mph 58% 0.00 in 204 W/m2
14:54 46.3 °F 32.7 °F 29.69 in SW 3.0 mph 6.0 mph 59% 0.00 in 190 W/m2
15:00 46.3 °F 32.3 °F 29.69 in SSW 3.0 mph 7.0 mph 58% 0.00 in 199 W/m2
15:06 46.2 °F 32.2 °F 29.68 in SW 5.0 mph 8.0 mph 58% 0.00 in 176 W/m2
15:12 46.0 °F 32.0 °F 29.69 in SSE 7.0 mph 7.0 mph 58% 0.00 in 156 W/m2
15:18 46.0 °F 32.0 °F 29.69 in South 6.0 mph 7.0 mph 58% 0.00 in 229 W/m2
15:24 46.0 °F 32.0 °F 29.69 in SSW 5.0 mph 6.0 mph 58% 0.00 in 204 W/m2
15:30 46.1 °F 32.1 °F 29.69 in SSW 5.0 mph 7.0 mph 58% 0.00 in 128 W/m2
15:36 45.9 °F 31.9 °F 29.69 in SSW 4.0 mph 7.0 mph 58% 0.00 in 109 W/m2
15:42 45.8 °F 31.9 °F 29.69 in SW 4.0 mph 5.0 mph 58% 0.00 in 137 W/m2
15:48 45.8 °F 31.9 °F 29.70 in SSW 4.0 mph 5.0 mph 58% 0.00 in 100 W/m2
15:54 45.8 °F 31.9 °F 29.70 in SSE 4.0 mph 7.0 mph 58% 0.00 in 67 W/m2
16:00 45.6 °F 32.1 °F 29.70 in South 5.0 mph 5.0 mph 59% 0.00 in 65 W/m2
16:06 45.5 °F 32.0 °F 29.69 in South 5.0 mph 7.0 mph 59% 0.00 in 70 W/m2
16:12 45.4 °F 31.9 °F 29.69 in SW 5.0 mph 7.0 mph 59% 0.00 in 65 W/m2
16:18 45.3 °F 31.8 °F 29.69 in SSW 4.0 mph 7.0 mph 59% 0.00 in 39 W/m2
16:24 45.1 °F 32.0 °F 29.70 in South 4.0 mph 4.0 mph 60% 0.00 in 32 W/m2
16:30 45.0 °F 31.9 °F 29.70 in SSE 5.0 mph 6.0 mph 60% 0.00 in 18 W/m2
16:36 44.9 °F 31.8 °F 29.70 in SSW 6.0 mph 7.0 mph 60% 0.00 in 19 W/m2
16:42 44.7 °F 32.1 °F 29.70 in SW 5.0 mph 6.0 mph 61% 0.00 in 12 W/m2
16:48 44.6 °F 32.0 °F 29.70 in SSW 5.0 mph 7.0 mph 61% 0.00 in 11 W/m2
16:54 44.5 °F 32.3 °F 29.70 in SW 6.0 mph 8.0 mph 62% 0.00 in 7 W/m2
17:00 44.4 °F 32.2 °F 29.70 in South 5.0 mph 5.0 mph 62% 0.00 in 5 W/m2
17:06 44.1 °F 32.3 °F 29.71 in SSW 5.0 mph 9.0 mph 63% 0.00 in 0 W/m2
17:12 43.8 °F 33.2 °F 29.71 in SW 6.0 mph 7.0 mph 66% 0.00 in 0 W/m2
17:18 42.9 °F 33.4 °F 29.72 in SW 6.0 mph 7.0 mph 69% 0.00 in 0 W/m2
17:24 42.3 °F 33.6 °F 29.72 in SW 6.0 mph 7.0 mph 71% 0.00 in 0 W/m2
17:30 42.1 °F 33.7 °F 29.72 in SSW 5.0 mph 5.0 mph 72% 0.00 in 0 W/m2
17:36 42.0 °F 33.6 °F 29.73 in SW 4.0 mph 5.0 mph 72% 0.00 in 0 W/m2
17:42 42.0 °F 33.6 °F 29.73 in SSW 6.0 mph 7.0 mph 72% 0.00 in 0 W/m2
17:48 41.9 °F 33.5 °F 29.73 in SSW 4.0 mph 7.0 mph 72% 0.00 in 0 W/m2
17:54 41.9 °F 33.5 °F 29.74 in WSW 2.0 mph 4.0 mph 72% 0.00 in 0 W/m2
18:00 41.7 °F 33.3 °F 29.73 in WSW 2.0 mph 2.0 mph 72% 0.00 in 0 W/m2
18:06 41.6 °F 33.2 °F 29.74 in WSW 1.0 mph 2.0 mph 72% 0.00 in 0 W/m2
18:12 41.3 °F 32.6 °F 29.75 in Calm   3.0 mph 71% 0.00 in 0 W/m2
18:18 40.8 °F 31.8 °F 29.75 in NW 2.0 mph 3.0 mph 70% 0.00 in 0 W/m2
18:24 40.5 °F 31.1 °F 29.76 in WNW 3.0 mph 4.0 mph 69% 0.00 in 0 W/m2
18:30 40.3 °F 30.6 °F 29.76 in NW 2.0 mph 3.0 mph 68% 0.00 in 0 W/m2
18:36 40.2 °F 28.6 °F 29.76 in WNW 3.0 mph 7.0 mph 63% 0.00 in 0 W/m2
18:42 39.9 °F 27.1 °F 29.77 in WSW 4.0 mph 4.0 mph 60% 0.00 in 0 W/m2
18:48 39.8 °F 27.0 °F 29.77 in WNW 4.0 mph 4.0 mph 60% 0.00 in 0 W/m2
18:54 39.7 °F 26.9 °F 29.77 in WSW 3.0 mph 7.0 mph 60% 0.00 in 0 W/m2
19:00 39.5 °F 26.3 °F 29.77 in WSW 5.0 mph 6.0 mph 59% 0.00 in 0 W/m2
19:06 39.4 °F 26.2 °F 29.78 in West 5.0 mph 6.0 mph 59% 0.00 in 0 W/m2
19:12 39.2 °F 26.1 °F 29.78 in WSW 4.0 mph 5.0 mph 59% 0.00 in 0 W/m2
19:18 39.1 °F 26.0 °F 29.78 in West 4.0 mph 5.0 mph 59% 0.00 in 0 W/m2
19:24 39.0 °F 26.3 °F 29.78 in WNW 4.0 mph 5.0 mph 60% 0.00 in 0 W/m2
19:30 38.8 °F 26.5 °F 29.79 in NW 4.0 mph 5.0 mph 61% 0.00 in 0 W/m2
19:36 37.5 °F 27.9 °F 29.80 in West 6.0 mph 8.0 mph 68% 0.00 in 0 W/m2
19:42 35.7 °F 27.6 °F 29.81 in NW 7.0 mph 7.0 mph 72% 0.00 in 0 W/m2
19:48 34.1 °F 26.3 °F 29.82 in NW 7.0 mph 11.0 mph 73% 0.00 in 0 W/m2
19:54 33.2 °F 25.8 °F 29.81 in NW 7.0 mph 7.0 mph 74% 0.00 in 0 W/m2
20:00 32.6 °F 25.2 °F 29.82 in WNW 6.0 mph 6.0 mph 74% 0.00 in 0 W/m2
20:06 31.9 °F 25.2 °F 29.83 in NNW 5.0 mph 6.0 mph 76% 0.00 in 0 W/m2
20:12 31.3 °F 25.5 °F 29.82 in NW 4.0 mph 7.0 mph 79% 0.00 in 0 W/m2
20:18 30.8 °F 24.7 °F 29.82 in NW 6.0 mph 7.0 mph 78% 0.00 in 0 W/m2
20:24 30.9 °F 24.5 °F 29.83 in WNW 6.0 mph 7.0 mph 77% 0.00 in 0 W/m2
20:30 30.9 °F 24.5 °F 29.84 in NW 6.0 mph 6.0 mph 77% 0.00 in 0 W/m2
20:36 30.7 °F 23.7 °F 29.85 in WNW 6.0 mph 7.0 mph 75% 0.00 in 0 W/m2
20:42 30.4 °F 23.1 °F 29.85 in West 6.0 mph 9.0 mph 74% 0.00 in 0 W/m2
20:48 30.1 °F 22.8 °F 29.85 in NW 5.0 mph 9.0 mph 74% 0.00 in 0 W/m2
20:54 29.8 °F 22.5 °F 29.86 in NW 5.0 mph 15.0 mph 74% 0.00 in 0 W/m2
21:00 29.4 °F 21.8 °F 29.86 in NW 5.0 mph 6.0 mph 73% 0.00 in 0 W/m2
21:06 29.1 °F 21.2 °F 29.88 in WNW 5.0 mph 6.0 mph 72% 0.00 in 0 W/m2
21:12 28.7 °F 20.8 °F 29.88 in NNW 4.0 mph 6.0 mph 72% 0.00 in 0 W/m2
21:18 28.2 °F 20.3 °F 29.89 in WNW 5.0 mph 12.0 mph 72% 0.00 in 0 W/m2
21:24 28.1 °F 20.2 °F 29.89 in NW 6.0 mph 6.0 mph 72% 0.00 in 0 W/m2
21:30 27.8 °F 19.6 °F 29.89 in WNW 5.0 mph 5.0 mph 71% 0.00 in 0 W/m2
21:36 27.5 °F 19.7 °F 29.90 in NNW 5.0 mph 6.0 mph 72% 0.00 in 0 W/m2
21:42 27.2 °F 19.7 °F 29.89 in NW 5.0 mph 9.0 mph 73% 0.00 in 0 W/m2
21:48 26.7 °F 19.8 °F 29.89 in WNW 6.0 mph 9.0 mph 75% 0.00 in 0 W/m2
21:54 26.7 °F 19.2 °F 29.90 in West 5.0 mph 15.0 mph 73% 0.00 in 0 W/m2
22:00 26.7 °F 18.9 °F 29.90 in WNW 7.0 mph 7.0 mph 72% 0.00 in 0 W/m2
22:06 25.9 °F 19.1 °F 29.91 in WNW 6.0 mph 8.0 mph 75% 0.00 in 0 W/m2
22:12 25.2 °F 19.3 °F 29.91 in WNW 6.0 mph 10.0 mph 78% 0.00 in 0 W/m2
22:18 25.0 °F 19.7 °F 29.91 in WNW 5.0 mph 10.0 mph 80% 0.00 in 0 W/m2
22:24 24.9 °F 19.9 °F 29.91 in WNW 4.0 mph 6.0 mph 81% 0.00 in 0 W/m2
22:30 24.8 °F 20.1 °F 29.91 in NNW 4.0 mph 10.0 mph 82% 0.00 in 0 W/m2
22:36 24.4 °F 19.4 °F 29.92 in NW 6.0 mph 10.0 mph 81% 0.00 in 0 W/m2
22:42 24.2 °F 18.9 °F 29.93 in NW 5.0 mph 6.0 mph 80% 0.00 in 0 W/m2
22:48 23.7 °F 18.4 °F 29.93 in NW 6.0 mph 8.0 mph 80% 0.00 in 0 W/m2
22:54 23.6 °F 18.3 °F 29.92 in NW 6.0 mph 9.0 mph 80% 0.00 in 0 W/m2
23:00 23.5 °F 18.2 °F 29.93 in NW 4.0 mph 4.0 mph 80% 0.00 in 0 W/m2
23:06 23.3 °F 18.3 °F 29.93 in NW 4.0 mph 7.0 mph 81% 0.00 in 0 W/m2
23:12 23.2 °F 17.9 °F 29.93 in NW 5.0 mph 5.0 mph 80% 0.00 in 0 W/m2
23:18 23.2 °F 17.9 °F 29.94 in NNW 4.0 mph 5.0 mph 80% 0.00 in 0 W/m2
23:24 23.2 °F 17.9 °F 29.93 in NW 3.0 mph 4.0 mph 80% 0.00 in 0 W/m2
23:30 23.3 °F 17.7 °F 29.94 in NNW 3.0 mph 3.0 mph 79% 0.00 in 0 W/m2
23:36 23.2 °F 17.4 °F 29.93 in NNW 4.0 mph 9.0 mph 78% 0.00 in 0 W/m2
23:42 23.1 °F 17.0 °F 29.93 in NNW 5.0 mph 5.0 mph 77% 0.00 in 0 W/m2
23:48 23.2 °F 16.4 °F 29.93 in NNW 4.0 mph 6.0 mph 75% 0.00 in 0 W/m2
23:54 23.5 °F 16.4 °F 29.94 in NNW 5.0 mph 9.0 mph 74% 0.00 in 0 W/m2
Country Meadow, Clay, NY, USA
Compliments of Weather Underground - 2 mb